KL1V-13 Weather Reports


Display with metric or nautical units.
time (UTC)temp
F
wind
direction
speed
MPH
gust
MPH
rain 1hr
in
rain 24hr
in
rain mn
in
humidity
%
barometer
mb
20260505064731 43 325 4.0 5.0 0.02 0.45 0.37 89 1005.8
20260505063751 43 316 5.0 6.0 0.02 0.44 0.36 89 1005.8
20260505062710 43 322 6.0 8.0 0.02 0.44 0.36 88 1005.8
20260505061710 43 357 1.0 5.0 0.02 0.45 0.36 88 1005.8
20260505060710 43 314 4.0 6.0 0.02 0.46 0.36 88 1006.0
20260505055710 43 287 3.0 5.0 0.01 0.45 0.35 88 1005.8
20260505054710 43 311 4.0 7.0 0.01 0.45 0.35 88 1005.9
20260505053711 43 315 5.0 7.0 0.00 0.46 0.34 87 1006.1
20260505052711 43 323 3.0 4.0 0.00 0.46 0.34 87 1005.8
20260505051711 44 315 3.0 4.0 0.00 0.47 0.34 87 1006.1
20260505050731 44 330 6.0 8.0 0.01 0.48 0.34 87 1006.5
20260505040710 45 49 6.0 8.0 0.00 0.49 0.33 86 1007.5
20260505035710 46 131 0.0 2.0 0.00 0.50 0.33 84 1007.8
20260505034730 46 315 1.0 3.0 0.00 0.51 0.33 82 1007.8
20260505033710 47 320 4.0 5.0 0.00 0.51 0.33 82 1007.6
20260505032710 46 349 2.0 4.0 0.00 0.51 0.33 83 1007.8
20260505031710 46 306 7.0 10.0 0.00 0.52 0.33 84 1007.8
20260505030710 46 316 5.0 7.0 0.00 0.53 0.33 83 1008.2
20260505025710 46 317 6.0 8.0 0.00 0.53 0.33 82 1008.3
20260505024710 47 4 4.0 9.0 0.00 0.53 0.33 82 1008.5
20260505023710 46 332 6.0 8.0 0.00 0.55 0.33 82 1008.4
20260505022710 46 321 7.0 15.0 0.00 0.55 0.33 83 1008.5
20260505021710 46 325 8.0 11.0 0.01 0.55 0.33 83 1008.5
20260505020710 46 317 10.0 16.0 0.01 0.57 0.33 83 1008.6
20260505015730 47 326 7.0 9.0 0.01 0.57 0.33 83 1009.1
20260505014710 47 322 6.0 10.0 0.01 0.57 0.33 84 1009.2
20260505013710 47 333 8.0 11.0 0.02 0.59 0.33 85 1009.5
20260505012731 47 319 8.0 11.0 0.03 0.59 0.33 87 1009.5
20260505011710 47 358 3.0 8.0 0.02 0.58 0.32 87 1010.2
20260505010710 46 336 5.0 9.0 0.02 0.58 0.32 88 1010.6
20260505005710 46 202 1.0 4.0 0.02 0.58 0.32 88 1010.9
20260505004730 46 180 0.0 3.0 0.03 0.59 0.32 88 1010.9
20260505003730 46 327 5.0 8.0 0.02 0.58 0.31 88 1010.9
20260505002710 45 309 3.0 4.0 0.02 0.58 0.30 89 1011.2
20260505001731 45 23 0.0 2.0 0.02 0.58 0.30 89 1011.7
20260505000710 45 0.0 2.0 0.02 0.58 0.30 89 1011.9
20260504235710 45 137 1.0 2.0 0.04 0.58 0.30 90 1012.1
20260504234710 45 67 0.0 2.0 0.03 0.57 0.29 90 1012.3
20260504233711 46 315 1.0 3.0 0.03 0.57 0.29 89 1012.5
20260504232711 45 345 3.0 6.0 0.02 0.56 0.28 90 1012.6
20260504231710 45 0.0 0.0 0.02 0.56 0.28 89 1012.6
20260504230711 45 67 0.0 1.0 0.02 0.56 0.28 89 1012.6
20260504225710 45 0.0 1.0 0.00 0.54 0.26 89 1012.9
20260504224710 46 292 1.0 4.0 0.00 0.54 0.26 89 1012.9
20260504223711 46 322 1.0 3.0 0.00 0.54 0.26 90 1013.3
20260504222710 46 0.0 0.0 0.00 0.54 0.26 90 1013.1
20260504221711 47 180 0.0 4.0 0.00 0.54 0.26 90 1013.3
20260504220711 46 0.0 0.0 0.00 0.54 0.26 90 1013.5
20260504215731 46 315 1.0 3.0 0.00 0.54 0.26 90 1013.5
20260504214710 45 84 1.0 2.0 0.00 0.54 0.26 90 1013.6
20260504213711 45 112 2.0 4.0 0.00 0.54 0.26 91 1014.1
20260504212711 45 112 0.0 2.0 0.00 0.54 0.26 91 1014.3
20260504211710 45 0.0 0.0 0.00 0.54 0.26 91 1014.3
20260504210730 44 180 1.0 2.0 0.00 0.54 0.26 91 1014.3
20260504205711 44 360 0.0 2.0 0.00 0.54 0.26 92 1014.6
20260504204730 44 0.0 0.0 0.00 0.54 0.26 92 1015.0
20260504203710 44 112 0.0 2.0 0.00 0.54 0.26 92 1015.0
20260504202710 44 0.0 0.0 0.00 0.54 0.26 92 1015.2
20260504201732 44 67 0.0 1.0 0.00 0.54 0.26 92 1015.3
20260504200710 43 0.0 0.0 0.00 0.54 0.26 93 1015.8
20260504195710 42 0.0 0.0 0.00 0.54 0.26 93 1016.2
20260504194710 41 0.0 0.0 0.00 0.54 0.26 93 1016.5
20260504193710 41 0.0 0.0 0.00 0.54 0.26 93 1016.7
20260504192710 41 58 1.0 1.0 0.00 0.54 0.26 93 1016.7
20260504191710 40 0.0 0.0 0.00 0.54 0.26 93 1016.9
20260504190710 40 0.0 0.0 0.00 0.54 0.26 93 1017.0
20260504185710 40 0.0 0.0 0.00 0.54 0.26 93 1017.4
20260504184711 40 90 0.0 1.0 0.00 0.54 0.26 93 1017.4
20260504183710 39 315 1.0 2.0 0.00 0.54 0.26 93 1017.4
20260504182811 39 0.0 0.0 0.00 0.54 0.26 93 1017.4
20260504181710 39 0.0 0.0 0.00 0.54 0.26 93 1017.9
20260504180730 39 0.0 0.0 0.01 0.54 0.26 93 1017.7
20260504175731 39 337 2.0 2.0 0.01 0.54 0.26 93 1018.0
20260504174710 38 0.0 0.0 0.02 0.54 0.26 93 1018.0
20260504173731 38 0.0 0.0 0.02 0.54 0.26 93 1018.2
20260504172710 38 0.0 0.0 0.02 0.54 0.26 93 1018.4
20260504171710 38 0.0 0.0 0.02 0.54 0.26 93 1018.2
20260504170710 38 0.0 0.0 0.03 0.53 0.25 93 1018.4
20260504150731 36 0.0 0.0 0.02 0.48 0.20 93 1019.4
20260504140710 36 0.0 0.0 0.01 0.46 0.18 93 1019.7
20260504130711 36 0.0 0.0 0.02 0.45 0.17 93 1019.7
20260504110712 36 0.0 0.0 0.02 0.40 0.12 92 1020.4
20260504081713 37 0.0 0.0 0.06 0.30 0.02 92 1020.8
20260504080712 37 0.0 0.0 0.07 0.29 0.01 92 1020.8